| time (UTC) | temp C | wind direction | speed KPH | gust KPH | rain 1hr cm | rain 24hr cm | rain mn cm | humidity % | barometer mb |
| 20260504231530 | 15 | 214 | 0.0 | 0.0 | 0.00 | 0.03 | 0.03 | 58 | 1006.2 |
| 20260504230030 | 16 | 214 | 0.0 | 1.6 | 0.00 | 0.03 | 0.03 | 56 | 1006.2 |
| 20260504224530 | 16 | 214 | 0.0 | 9.7 | 0.00 | 0.03 | 0.03 | 56 | 1006.1 |
| 20260504223029 | 16 | 310 | 1.6 | 9.7 | 0.00 | 0.03 | 0.03 | 54 | 1006.0 |
| 20260504221529 | 16 | 215 | 1.6 | 12.9 | 0.00 | 0.03 | 0.03 | 53 | 1005.9 |
| 20260504220042 | 16 | 320 | 1.6 | 8.0 | 0.00 | 0.03 | 0.03 | 56 | 1006.0 |
| 20260504214533 | 16 | 196 | 0.0 | 12.9 | 0.00 | 0.03 | 0.03 | 55 | 1005.9 |
| 20260504213031 | 16 | 204 | 3.2 | 16.1 | 0.00 | 0.03 | 0.03 | 54 | 1005.8 |
| 20260504211536 | 16 | 300 | 3.2 | 17.7 | 0.00 | 0.03 | 0.03 | 57 | 1005.7 |
| 20260504210026 | 16 | 283 | 4.8 | 12.9 | 0.00 | 0.03 | 0.03 | 57 | 1005.7 |
| 20260504204536 | 16 | 220 | 9.7 | 22.5 | 0.00 | 0.03 | 0.03 | 57 | 1005.6 |
| 20260504203025 | 16 | 243 | 8.0 | 20.9 | 0.00 | 0.03 | 0.03 | 56 | 1005.5 |
| 20260504201526 | 16 | 302 | 8.0 | 20.9 | 0.00 | 0.03 | 0.03 | 57 | 1005.6 |
| 20260504200023 | 16 | 268 | 3.2 | 16.1 | 0.00 | 0.03 | 0.03 | 63 | 1005.5 |
| 20260504194520 | 15 | 191 | 8.0 | 14.5 | 0.00 | 0.05 | 0.03 | 64 | 1005.5 |
| 20260504193017 | 14 | 201 | 6.4 | 19.3 | 0.00 | 0.05 | 0.03 | 71 | 1005.7 |
| 20260504191513 | 13 | 221 | 6.4 | 12.9 | 0.00 | 0.05 | 0.03 | 75 | 1005.7 |
| 20260504190013 | 12 | 222 | 8.0 | 14.5 | 0.03 | 0.05 | 0.03 | 78 | 1006.0 |
| 20260504184511 | 11 | 222 | 1.6 | 6.4 | 0.03 | 0.10 | 0.03 | 84 | 1006.0 |
| 20260504183010 | 11 | 222 | 3.2 | 8.0 | 0.03 | 0.10 | 0.03 | 85 | 1006.3 |
| 20260504181507 | 11 | 218 | 0.0 | 9.7 | 0.00 | 0.08 | 0.00 | 83 | 1006.5 |
| 20260504180006 | 12 | 308 | 1.6 | 8.0 | 0.00 | 0.08 | 0.00 | 76 | 1006.8 |
| 20260504174506 | 12 | 297 | 4.8 | 14.5 | 0.00 | 0.13 | 0.00 | 71 | 1006.4 |
| 20260504173004 | 13 | 335 | 6.4 | 16.1 | 0.00 | 0.13 | 0.00 | 69 | 1006.1 |
| 20260504171506 | 12 | 174 | 1.6 | 6.4 | 0.00 | 0.13 | 0.00 | 71 | 1006.0 |
| 20260504081552 | 2 | 233 | 0.0 | 4.8 | 0.00 | 1.19 | 0.00 | 79 | 1007.5 |
| 20260504080153 | 2 | 235 | 0.0 | 6.4 | 0.00 | 1.19 | 0.00 | 79 | 1007.4 |
| 20260504044533 | 4 | 308 | 1.6 | 9.7 | 0.00 | 1.24 | 0.00 | 67 | 1006.4 |
| 20260504043030 | 5 | 299 | 3.2 | 8.0 | 0.00 | 1.24 | 0.00 | 66 | 1006.4 |
| 20260504041518 | 5 | 298 | 3.2 | 9.7 | 0.00 | 1.24 | 0.00 | 67 | 1006.4 |
| 20260504040019 | 5 | 316 | 3.2 | 9.7 | 0.00 | 1.24 | 0.00 | 66 | 1006.3 |
| 20260504034514 | 5 | 314 | 1.6 | 8.0 | 0.00 | 1.24 | 1.24 | 66 | 1006.0 |
| 20260504033013 | 5 | 314 | 1.6 | 11.3 | 0.00 | 1.24 | 1.24 | 65 | 1005.8 |
| 20260504031517 | 5 | 317 | 3.2 | 8.0 | 0.00 | 1.24 | 1.24 | 64 | 1005.9 |
| 20260504030014 | 5 | 318 | 6.4 | 14.5 | 0.00 | 1.24 | 1.24 | 62 | 1005.7 |
| 20260504024512 | 5 | 323 | 4.8 | 11.3 | 0.00 | 1.24 | 1.24 | 62 | 1005.6 |
| 20260504023011 | 6 | 322 | 8.0 | 14.5 | 0.00 | 1.24 | 1.24 | 61 | 1005.5 |
| 20260504021513 | 6 | 327 | 6.4 | 14.5 | 0.00 | 1.24 | 1.24 | 60 | 1005.4 |
| 20260504020012 | 6 | 255 | 6.4 | 14.5 | 0.00 | 1.24 | 1.24 | 60 | 1005.2 |
| 20260504014510 | 6 | 303 | 6.4 | 12.9 | 0.00 | 1.24 | 1.24 | 60 | 1005.2 |
| 20260504013011 | 6 | 296 | 8.0 | 17.7 | 0.00 | 1.24 | 1.24 | 59 | 1005.0 |
| 20260504011507 | 6 | 318 | 6.4 | 14.5 | 0.00 | 1.24 | 1.24 | 58 | 1005.0 |
| 20260504010007 | 6 | 319 | 9.7 | 17.7 | 0.00 | 1.24 | 1.24 | 58 | 1004.7 |
| 20260504004515 | 7 | 318 | 8.0 | 16.1 | 0.00 | 1.24 | 1.24 | 59 | 1004.5 |
| 20260504003005 | 7 | 295 | 9.7 | 16.1 | 0.00 | 1.24 | 1.24 | 60 | 1004.1 |
| 20260504001505 | 7 | 324 | 9.7 | 20.9 | 0.00 | 1.24 | 1.24 | 61 | 1003.9 |
| 20260504000004 | 7 | 308 | 8.0 | 14.5 | 0.00 | 1.24 | 1.24 | 66 | 1003.6 |
| 20260503234502 | 7 | 309 | 6.4 | 11.3 | 0.00 | 1.24 | 1.24 | 73 | 1003.3 |
| 20260503233059 | 7 | 294 | 1.6 | 6.4 | 0.00 | 1.24 | 1.24 | 84 | 1003.2 |